Content
SEND FEEDBACK

Daily
Averages
Monthly
Summary
Malaysia

PETALING JAYA, MALAYSIA


Home > Asia > Malaysia
Elevation: 98 feet     Latitude: 03 06N     Longitude: 0101 36

WEATHER
 
SELECT A DAY
Number of Records: 120,153;   Date Range: 7/19/98 - 9/22/14
 
SHARE

PRINT THIS DATA

[ ← Previous Day ]
WEATHER ALMANAC - JANUARY 23, 2013
[ Next Day → ]
[ °C ]   °F
Weather ElementAverageHighLow
Temperature82.2 °F91.4 °F (2:00 pm)77 °F (4:00 am)
Dewpoint74.8 °F77 °F (1:00 am)73.4 °F (4:00 am)
Humidity79.5 %94 % (2:00 am)55 % (2:00 pm)
Barometer29.85 in29.92 in (10:00 am)29.74 in (5:00 pm)
Wind Speed2.7 mph9.2 mph (5:00 pm)
Weather ElementAverage
Visibility5.4 mi
Wind DirectionSSE (170.4 °)

Weather ElementTotal
Precipitation---
Cooling Degree Days19.2 (Base 65)
Growing Degree Days34.2 (Base 50)
Averaged from 23 records on January 23, 2013
WEATHER CONDITIONS BREAKOUT
WIND DIRECTION BREAKOUT
WEATHER BY HOUR - JANUARY 23, 2013
[ °C ]   °F
Local TimeTemperatureDewpointHumidityBarometerVisibilityWind DirectionWind SpeedGust SpeedPrecipitationEventsConditions
1:00 AM80.6 °F77.0 °F89 %29.89 in4.3 miNNE (20°)1.2 mphMostly Cloudy
2:00 AM78.8 °F77.0 °F94 %29.86 in4.3 miNNE (20°)1.2 mphMostly Cloudy
3:00 AM78.8 °F77.0 °F94 %29.86 in5.6 miCalmMostly Cloudy
4:00 AM77.0 °F73.4 °F89 %29.83 in5.6 miCalmMostly Cloudy
5:00 AM77.0 °F75.2 °F94 %29.83 in4.3 miNorth (360°)1.2 mphMostly Cloudy
6:00 AM77.0 °F75.2 °F94 %29.86 in4.3 miCalmMostly Cloudy
7:00 AM77.0 °F75.2 °F94 %29.86 in3.1 miCalmHaze
8:00 AM77.0 °F73.4 °F89 %29.86 in5.6 miNNE (30°)2.3 mphMostly Cloudy
9:00 AM80.6 °F75.2 °F84 %29.89 in6.2 miWNW (290°)1.2 mphMostly Cloudy
10:00 AM84.2 °F73.4 °F70 %29.92 in6.2 miWNW (290°)3.5 mphMostly Cloudy
11:00 AM87.8 °F73.4 °F62 %29.92 in6.2 miNNW (330°)1.2 mphMostly Cloudy
12:00 PM89.6 °F73.4 °F59 %29.89 in6.2 miNorth (350°)5.8 mphMostly Cloudy
1:00 PM89.6 °F73.4 °F59 %29.89 in6.2 miNorth (10°)4.6 mphMostly Cloudy
2:00 PM91.4 °F73.4 °F55 %29.83 in6.2 miWest (280°)4.6 mphMostly Cloudy
3:00 PM91.4 °F75.2 °F59 %29.80 in6.2 miNNW (330°)3.5 mphMostly Cloudy
4:00 PM89.6 °F75.2 °F62 %29.77 in6.2 miWest (280°)4.6 mphMostly Cloudy
5:00 PM82.4 °F73.4 °F74 %29.74 in6.2 miWest (280°)9.2 mphThunderstormThunderstorm
6:00 PM84.2 °F75.2 °F74 %29.77 in6.2 miWest (260°)3.5 mphMostly Cloudy
7:00 PM82.4 °F75.2 °F79 %29.80 in5.6 miNW (320°)4.6 mphThunderstormThunderstorm
8:00 PM80.6 °F77.0 °F89 %29.83 in5.0 miNW (320°)1.2 mphRain-ThunderstormLight Thunderstorms and Rain
9:00 PM78.8 °F73.4 °F83 %29.86 in5.0 miENE (70°)4.6 mphMostly Cloudy
10:00 PM77.0 °F75.2 °F94 %29.89 in5.0 miNNE (30°)2.3 mphRainLight Rain
11:00 PM78.8 °F75.2 °F89 %29.92 in4.3 miNE (50°)2.3 mphMostly Cloudy
Hourly data recorded from WMSA, located miles away from Petaling Jaya, Malaysia







STORIES FROM OUR PARTNERS